Back to catalog

STARLINK-4145

AliveCommunicationsVLEO
NORAD 53137·PAYLOAD·🇺🇸 United States

Launched Jul 17, 2022 from Cape Canaveral Space Force Station

Loading…

Next Passes (next 24 hours)

TLE

FreshSource: CelesTrak SupGP

Epoch: Sep 14, 2026, 13:59 UTC

1 53137C 22083F   26257.58312500 -.00022849  00000+0 -65379-3 0  2576
2 53137  53.1588  33.8778 0001237  86.6708 107.0135 15.35406667    16

Track STARLINK-4145 in real time with AllMySat

Download on the App Store